• In Hungary
  • List of Countries
  • For 7 days
  • Water Temperature
  • Satellite Maps
  • Weather Map
  • News
  • Weather Widgets
  • user-avatar
    Login

    Hourly Weather Ossowo

    Today, 22 October, Sunday

    Time Temperature Precipitation Wind Pressure Humidity
    00:00 +11°C° 0 mm 1 mps 754 mmHg 90%
    01:00 +11°C° 0 mm 1 mps 753 mmHg 91%
    02:00 +10°C° 0 mm 1 mps 753 mmHg 92%
    03:00 +9°C° 0 mm 2 mps 753 mmHg 93%
    04:00 +9°C° 0 mm 2 mps 753 mmHg 94%
    05:00 +9°C° 0 mm 2 mps 752 mmHg 94%
    06:00 +9°C° 0 mm 3 mps 752 mmHg 94%
    07:00 +9°C° 0 mm 3 mps 752 mmHg 94%
    08:00 +10°C° 0.2 mm 3 mps 752 mmHg 90%
    09:00 +10°C° 0.2 mm 3 mps 752 mmHg 86%
    10:00 +11°C° 0.2 mm 4 mps 752 mmHg 82%
    11:00 +11°C° 0.6 mm 3 mps 752 mmHg 84%
    12:00 +11°C° 0.6 mm 3 mps 752 mmHg 85%
    13:00 +11°C° 0.6 mm 3 mps 752 mmHg 87%
    14:00 +10°C° 0.6 mm 3 mps 751 mmHg 88%
    15:00 +10°C° 0.6 mm 3 mps 751 mmHg 90%
    16:00 +10°C° 0.6 mm 2 mps 751 mmHg 91%
    17:00 +10°C° 0.2 mm 2 mps 751 mmHg 92%
    18:00 +10°C° 0.2 mm 2 mps 751 mmHg 92%
    19:00 +10°C° 0.2 mm 2 mps 751 mmHg 93%
    20:00 +10°C° 0.1 mm 2 mps 751 mmHg 92%
    21:00 +10°C° 0.1 mm 2 mps 751 mmHg 92%
    22:00 +10°C° 0.1 mm 2 mps 751 mmHg 91%
    23:00 +9°C° 0 mm 2 mps 751 mmHg 91%

    Tomorrow, 23 October, Monday

    Time Temperature Precipitation Wind Pressure Humidity
    00:00 +9°C° 0 mm 2 mps 751 mmHg 91%
    01:00 +10°C° 0 mm 1 mps 751 mmHg 91%
    02:00 +9°C° 0 mm 2 mps 751 mmHg 91%
    03:00 +8°C° 0 mm 2 mps 751 mmHg 91%
    04:00 +8°C° 0 mm 2 mps 750 mmHg 91%
    05:00 +8°C° 0 mm 2 mps 750 mmHg 92%
    06:00 +8°C° 0 mm 2 mps 750 mmHg 92%
    07:00 +7°C° 0 mm 2 mps 751 mmHg 92%
    08:00 +8°C° 0 mm 2 mps 751 mmHg 88%
    09:00 +9°C° 0 mm 2 mps 751 mmHg 85%
    10:00 +10°C° 0 mm 2 mps 751 mmHg 81%
    11:00 +11°C° 0 mm 3 mps 751 mmHg 79%
    12:00 +11°C° 0 mm 3 mps 751 mmHg 77%
    13:00 +12°C° 0 mm 3 mps 751 mmHg 75%
    14:00 +11°C° 0.1 mm 3 mps 752 mmHg 77%
    15:00 +11°C° 0.1 mm 3 mps 752 mmHg 79%
    16:00 +11°C° 0.1 mm 3 mps 752 mmHg 80%
    17:00 +10°C° 0 mm 3 mps 753 mmHg 83%
    18:00 +10°C° 0 mm 2 mps 753 mmHg 86%
    19:00 +9°C° 0 mm 2 mps 754 mmHg 88%
    20:00 +9°C° 0 mm 2 mps 754 mmHg 89%
    21:00 +9°C° 0 mm 2 mps 755 mmHg 90%
    22:00 +8°C° 0 mm 2 mps 755 mmHg 92%
    23:00 +8°C° 0 mm 2 mps 755 mmHg 93%

    Day after tomorrow, 24 October, Tuesday

    Time Temperature Precipitation Wind Pressure Humidity
    00:00 +9°C° 0 mm 1 mps 756 mmHg 93%
    01:00 +8°C° 0 mm 1 mps 756 mmHg 94%
    02:00 +8°C° 0 mm 1 mps 757 mmHg 95%
    03:00 +8°C° 0 mm 1 mps 757 mmHg 95%
    04:00 +7°C° 0 mm 1 mps 757 mmHg 95%
    05:00 +7°C° 0 mm 1 mps 758 mmHg 95%
    06:00 +7°C° 0 mm 1 mps 758 mmHg 94%
    07:00 +8°C° 0 mm 1 mps 758 mmHg 93%
    08:00 +8°C° 0 mm 1 mps 759 mmHg 89%
    09:00 +8°C° 0 mm 0 mps 759 mmHg 85%
    10:00 +9°C° 0 mm 0 mps 759 mmHg 80%
    11:00 +10°C° 0 mm 0 mps 760 mmHg 77%
    12:00 +10°C° 0 mm 0 mps 760 mmHg 74%
    13:00 +11°C° 0 mm 0 mps 760 mmHg 71%
    14:00 +10°C° 0 mm 0 mps 760 mmHg 73%
    15:00 +10°C° 0 mm 0 mps 760 mmHg 75%
    16:00 +11°C° 0 mm 1 mps 760 mmHg 77%
    17:00 +11°C° 0 mm 1 mps 760 mmHg 78%
    18:00 +10°C° 0 mm 1 mps 761 mmHg 79%
    19:00 +9°C° 0 mm 2 mps 761 mmHg 80%
    20:00 +9°C° 0 mm 2 mps 761 mmHg 81%
    21:00 +9°C° 0 mm 2 mps 761 mmHg 81%
    22:00 +9°C° 0 mm 3 mps 761 mmHg 81%
    23:00 +8°C° 0 mm 3 mps 761 mmHg 82%

    25 October, Wednesday

    Time Temperature Precipitation Wind Pressure Humidity
    00:00 +8°C° 0 mm 3 mps 761 mmHg 82%
    01:00 +8°C° 0 mm 3 mps 761 mmHg 83%
    02:00 +8°C° 0 mm 3 mps 760 mmHg 83%
    03:00 +8°C° 0 mm 3 mps 760 mmHg 84%
    04:00 +8°C° 0 mm 3 mps 760 mmHg 84%
    05:00 +7°C° 0.1 mm 4 mps 760 mmHg 83%
    06:00 +7°C° 0.1 mm 4 mps 759 mmHg 82%
    07:00 +7°C° 0.1 mm 5 mps 759 mmHg 81%
    08:00 +7°C° 0.3 mm 5 mps 759 mmHg 81%
    09:00 +7°C° 0.3 mm 5 mps 759 mmHg 81%
    10:00 +8°C° 0.3 mm 5 mps 759 mmHg 81%
    11:00 +8°C° 0.4 mm 5 mps 758 mmHg 82%
    12:00 +8°C° 0.4 mm 5 mps 758 mmHg 83%
    13:00 +8°C° 0.4 mm 6 mps 758 mmHg 84%
    14:00 +8°C° 0.3 mm 5 mps 757 mmHg 86%
    15:00 +9°C° 0.3 mm 5 mps 757 mmHg 87%
    16:00 +9°C° 0.3 mm 5 mps 757 mmHg 89%
    17:00 +9°C° 0.1 mm 5 mps 756 mmHg 90%
    18:00 +10°C° 0.1 mm 5 mps 756 mmHg 92%
    19:00 +10°C° 0.1 mm 5 mps 756 mmHg 93%
    20:00 +12°C° 0.1 mm 5 mps 756 mmHg 92%
    21:00 +12°C° 0.1 mm 5 mps 755 mmHg 92%
    22:00 +13°C° 0.1 mm 6 mps 755 mmHg 92%
    23:00 +13°C° 0.1 mm 6 mps 755 mmHg 91%

    26 October, Thursday

    Time Temperature Precipitation Wind Pressure Humidity
    00:00 +13°C° 0.1 mm 6 mps 755 mmHg 90%
    01:00 +12°C° 0.1 mm 7 mps 755 mmHg 88%
    02:00 +11°C° 0 mm 6 mps 756 mmHg 89%
    03:00 +12°C° 0 mm 5 mps 756 mmHg 89%
    04:00 +10°C° 0 mm 5 mps 756 mmHg 89%
    05:00 +10°C° 0 mm 5 mps 756 mmHg 89%
    06:00 +9°C° 0 mm 5 mps 756 mmHg 90%
    07:00 +9°C° 0 mm 5 mps 757 mmHg 91%
    08:00 +9°C° 0 mm 6 mps 757 mmHg 86%
    09:00 +10°C° 0 mm 6 mps 757 mmHg 80%
    10:00 +11°C° 0 mm 7 mps 757 mmHg 75%
    11:00 +11°C° 0 mm 7 mps 757 mmHg 74%
    12:00 +11°C° 0 mm 7 mps 757 mmHg 73%
    13:00 +11°C° 0 mm 7 mps 757 mmHg 72%
    14:00 +11°C° 0 mm 6 mps 757 mmHg 74%
    15:00 +10°C° 0 mm 6 mps 756 mmHg 75%
    16:00 +10°C° 0 mm 5 mps 756 mmHg 77%
    17:00 +10°C° 0 mm 5 mps 756 mmHg 78%
    18:00 +10°C° 0 mm 5 mps 756 mmHg 79%
    19:00 +10°C° 0 mm 5 mps 756 mmHg 79%
    20:00 +10°C° 0 mm 5 mps 755 mmHg 80%
    21:00 +10°C° 0 mm 5 mps 755 mmHg 80%
    22:00 +9°C° 0 mm 5 mps 755 mmHg 80%
    23:00 +9°C° 0 mm 5 mps 754 mmHg 81%

    27 October, Friday

    Time Temperature Precipitation Wind Pressure Humidity
    00:00 +9°C° 0 mm 5 mps 754 mmHg 82%
    01:00 +9°C° 0 mm 5 mps 754 mmHg 82%
    02:00 +9°C° 0 mm 5 mps 753 mmHg 83%
    03:00 +9°C° 0 mm 5 mps 753 mmHg 84%
    04:00 +9°C° 0 mm 5 mps 753 mmHg 85%
    05:00 +9°C° 0.1 mm 5 mps 752 mmHg 86%
    06:00 +9°C° 0.1 mm 5 mps 752 mmHg 87%
    07:00 +8°C° 0.1 mm 5 mps 751 mmHg 88%
    08:00 +9°C° 0.2 mm 6 mps 751 mmHg 86%
    09:00 +9°C° 0.2 mm 6 mps 751 mmHg 84%
    10:00 +9°C° 0.2 mm 6 mps 750 mmHg 83%
    11:00 +9°C° 0.4 mm 6 mps 750 mmHg 82%
    12:00 +10°C° 0.4 mm 6 mps 749 mmHg 81%
    13:00 +10°C° 0.4 mm 5 mps 748 mmHg 80%
    14:00 +10°C° 1.3 mm 4 mps 747 mmHg 83%
    15:00 +10°C° 1.3 mm 3 mps 746 mmHg 87%
    16:00 +9°C° 1.3 mm 2 mps 745 mmHg 91%
    17:00 +9°C° 2.3 mm 2 mps 744 mmHg 92%
    18:00 +8°C° 2.3 mm 2 mps 743 mmHg 93%
    19:00 +8°C° 2.3 mm 3 mps 742 mmHg 94%
    20:00 +7°C° 0.8 mm 4 mps 742 mmHg 93%
    21:00 +7°C° 0.8 mm 4 mps 743 mmHg 91%
    22:00 +7°C° 0.8 mm 5 mps 743 mmHg 89%
    23:00 +7°C° 0.2 mm 6 mps 743 mmHg 88%
    Show more